Torna al catalogo

CZ-2C Y62 STAGE 2

AttivoVLEO
NORAD 51953·ROCKET BODY·🇨🇳 China
Questo nome del satellite non è ancora stato confermato da fonti ufficiali.

Lanciato Mar 5, 2022 da Xichang Satellite Launch Center

Loading…

Prossimi Passaggi (prossime 24 ore)

TLE

AggiornatoSource: Space-Track

Epoca: Sep 14, 2026, 15:18 UTC

1 51953U 22023H   26257.63753050  .00005123  00000-0  18592-3 0  9992
2 51953  63.6296  74.2300 0106906 307.9453  51.2040 15.24397589249882

Traccia CZ-2C Y62 STAGE 2 in tempo reale con AllMySat

Download on the App Store